Location: Brachbach
(49.1847°N, 9.7240°E)
Time: 13:22:09
(UTC+00:00)

CZ-2C R/B - Pass Details

Date: 09 August 2024
Orbit: 782 x 869 km, 98.3° (Epoch: 15 September)

Event Time Altitude Azimuth Distance (km) Brightness Sun altitude
Exits shadow 01:08:47 34° 166° (SSE) 1,378 3.4 -21.2°
Maximum altitude 01:11:20 88° 256° (WSW) 859 2.6 -21.0°
Drops below altitude 10° 01:16:50 10° 345° (NNW) 2,464 5.8 -20.6°
Sets 01:19:11 0° 346° (NNW) 3,389 6.6 -20.4°
